Terminal Aerodrome Forecast
Issued by NWS Green Bay, WI

Home | Current Version | Previous Version | Graphics & Text | Print | Product List | Glossary On
Versions: 1 2 3 4 5 6 7 8 9 10 11 12 13 14 15 16 17 18 19 20 21 22 23 24 25 26 27 28 29 30 31 32 33 34 35 36 37 38 39 40 41 42 43 44 45 46 47 48 49
000
FTUS43 KGRB 190500
TAFGRB
TAF
KGRB 190520Z 1906/2006 18006KT 4SM SHRA BR BKN035
      TEMPO 1906/1910 1 1/2SM TSRA BKN015CB
     FM191200 22006KT 5SM BR BKN012
      TEMPO 1912/1915 2SM BR BKN006
     FM191700 25008KT 4SM BR VCSH BKN025
      TEMPO 1919/1923 2SM TSRA BR OVC018CB
     FM192300 29006KT P6SM VCSH BKN035
      TEMPO 1923/2002 3SM -TSRA BKN025CB
     FM200400 30002KT 3SM BR SCT022 BKN100=

USA.gov is the U.S. government's official web portal to all federal, state and local government web resources and services.